Regional Weather Roundup
Issued by NWS

Home | Current Version | Previous Version | Text Only | Print | Product List | Glossary On
Versions: 1 2 3 4 5 6 7 8 9 10 11 12 13 14 15 16 17 18 19 20 21 22 23 24 25 26 27 28 29 30 31 32 33 34 35 36 37 38 39 40 41 42 43 44 45 46 47 48 49 50
000
ASUS46 KSTO 011404
RWRCA

NORTHERN AND CENTRAL CA REGIONAL WEATHER ROUNDUP
NATIONAL WEATHER SERVICE SACRAMENTO CA
700 AM PDT FRI AUG 01 2014

NOTE: FAIR INDICATES FEW OR NO CLOUDS BELOW 12,000 FEET WITH NO
SIGNIFICANT WEATHER AND/OR OBSTRUCTIONS TO VISIBILITY.

CAZ001-003-011500-
NORTHWEST AREA

CITY           SKY/WX    TMP DP  RH WIND       PRES   REMARKS
CRESCENT CITY  FOG       55  55 100 CALM      29.98R VSB 1/4
UKIAH          PTCLDY    60  47  61 CALM      29.92R
$$

CAZ006-505>513-011500-
BAY AREA

CITY           SKY/WX    TMP DP  RH WIND       PRES   REMARKS
SANTA ROSA     FOG       52  52 100 CALM      29.89S VSB 1/2
SAN RAFAEL     N/A       59  MM  MM MISG
NAPA           PTCLDY    55  55 100 CALM      29.89R FOG
CONCORD        PTCLDY    62  58  86 NW6       29.87R
OAKLAND CITY   N/A       59  MM  MM MISG
OAKLAND        MOCLDY    61  57  87 N6        29.91R
SAN FRAN CITY  N/A       58  MM  94 MISG
SAN FRAN ARPT  PTCLDY    60  58  92 W9        29.91R
LIVERMORE      PTCLDY    66  55  67 NW3       29.89R
HAYWARD        PTCLDY    63  59  87 N3        29.90S
REDWOOD CITY   N/A       MM  MM  MM MISG
MOFFETT ARPT   CLEAR     63  58  83 CALM      29.91S
SAN JOSE ARPT  PTCLDY    61  59  93 CALM      29.91R
$$
CAZ034-037-514>518-011500-
CENTRAL COAST

CITY           SKY/WX    TMP DP  RH WIND       PRES   REMARKS
WATSONVILLE    FOG       60  57  89 SE3       29.93R VSB 3/4
SALINAS        CLOUDY    58  54  86 CALM      29.92S
MONTEREY       CLOUDY    56  55  97 SW3       29.94R FOG
SAN LUIS OBISP CLOUDY    60  59  96 CALM      29.94R
SANTA MARIA    CLOUDY    61  58  90 CALM      29.94R FOG
$$
CAZ015-016-011500-
NORTHERN SACRAMENTO VALLEY

CITY           SKY/WX    TMP DP  RH WIND       PRES   REMARKS
REDDING        CLEAR     71  49  45 CALM      29.87R
RED BLUFF      CLEAR     73  45  36 NW6       29.87R
OROVILLE       PTCLDY    74  54  49 CALM      29.86R
$$
CAZ016>018-011500-
SOUTHERN SACRAMENTO VALLEY

CITY           SKY/WX    TMP DP  RH WIND       PRES   REMARKS
AUBURN         PTCLDY    81  46  30 E9        29.91S
BEALE AFB      CLEAR     69  51  53 N3        29.83R
LINCOLN        FAIR      64  52  63 CALM      29.83R
MARYSVILLE     PTCLDY    66  56  70 CALM      29.84R
SAC INTL ARPT  MOCLDY    67  55  65 SE5       29.83R
MATHER AIRPORT NOT AVBL
DOWNTOWN SAC   N/A       69  MM  MM MISG
SAC EXEC ARPT  CLEAR     66  56  70 CALM      29.84R
VACAVILLE      PTCLDY    67  54  63 CALM      29.84R
TRAVIS AFB     MOCLDY    64  59  85 SW15      29.82R
$$
CAZ019>021-011500-
SAN JOAQUIN VALLEY

CITY           SKY/WX    TMP DP  RH WIND       PRES   REMARKS
STOCKTON       CLEAR     67  56  67 CALM      29.84R
MODESTO        CLEAR     71  51  49 N5        29.83R
MERCED         CLEAR     68  51  54 S6        29.84R
LEMOORE        PTCLDY    70  43  37 CALM      29.85R
FRESNO         MOCLDY    78  53  41 NE3       29.86R
HANFORD        CLEAR     70  57  63 CALM      29.85R
PORTERVILLE    CLEAR     72  52  49 SE6       29.88S
BAKERSFIELD    CLEAR     82  54  37 E3        29.87R
$$
CAZ011-012-071-011500-
NORTHERN MOUNTAINS

CITY           SKY/WX    TMP DP  RH WIND       PRES   REMARKS
YREKA          CLOUDY    62  40  44 CALM      30.05R
MOUNT SHASTA   CLEAR     54  40  59 CALM      30.08S
ALTURAS        SUNNY     55  42  61 CALM      30.15S
$$
CAZ011-012-071-011500-
SIERRA NEVADA MTNS

CITY           SKY/WX    TMP DP  RH WIND       PRES   REMARKS
BLUE CANYON    CLEAR     74  33  22 NE5       30.21S
TAHOE VLY ARPT CLEAR     53  45  74 CALM      30.28S
MAMMOTH LAKES  FAIR      54  43  66 N3        30.35S
$$



USA.gov is the U.S. government's official web portal to all federal, state and local government web resources and services.